AirNav   Phillips 66 Aviation Fuel
 
 1643 users online  

KSLI Los Alamitos Army Airfield
Los Alamitos, California, USA

GOING TO LOS ALAMITOS?


FAA INFORMATION EFFECTIVE 21 JUNE 2018

Location

FAA Identifier: SLI
Lat/Long: 33-47-24.1080N / 118-03-05.1120W
33-47.401800N / 118-03.085200W
33.7900300 / -118.0514200
(estimated)
Elevation: 35.5 ft. / 10.8 m (surveyed)
Variation: 12E (2020)
From city: 1 mile SE of LOS ALAMITOS, CA
Time zone: UTC -7 (UTC -8 during Standard Time)
Zip code: 90720

Airport Operations

Airport use: Private use. Permission required prior to landing
Activation date: 04/1944
Control tower: yes
ARTCC: LOS ANGELES CENTER
FSS: HAWTHORNE FLIGHT SERVICE STATION
NOTAMs facility: SLI (NOTAM-D service available)
Attendance: TUE-THU 1400-0500Z++, ALL FRI 1400-0200Z++, ALL SAT-SUN 1530-2300Z++, ALL MON 1400-0200Z++
CLSD HOL. RSTD: PPR CTC AFLD OPS DSN 972-2571, C562-795-2571; HTTP://WWW.CALGUARD.CA.GOV/AA-LOSAI.
Segmented circle: no
Lights: SS-SR
Beacon: white-white-green (lighted military airport)
Operates sunset to sunrise.

Airport Communications

ATIS: 118.875 379.975
LOS ALAMITOS GROUND: 126.95 257.95 [1500-0500Z++ TUE-THU, 1600-0000Z++ FRI-MON; CLSD HOL]
LOS ALAMITOS TOWER: 123.85 251.15 [1500-0500Z++ TUE-THU, 1600-0000Z++ FRI-MON; CLSD HOL]
SOCAL APPROACH: 125.35
SOCAL DEPARTURE: 125.35
AFLD OPS ADVSY SVC: 126.2 237.2
ARNG AASF: 233.8 41.5
EMERG: 243.0
HAWWC SID: 125.35
RDR: 124.75 127.95 230.8 231.0 234.1
USAR OPS: 139.05 230.9
WX ASOS at LGB (5 nm W): PHONE 562-424-0572
WX ASOS at FUL (6 nm NE): PHONE 714-870-1372
WX AWOS-3PT at CPM (11 nm NW): 127.150 (310-631-4958)
WX ASOS at SNA (11 nm SE): PHONE 714-424-0590
WX ASOS at HHR (16 nm NW): PHONE 310-973-8930
WX AWOS-3PT at EMT (18 nm N): 118.75 ((626) 444-1107)
WX ASOS at LAX (20 nm NW): PHONE 310-568-1486
  • FOR CLNC DEL WHEN ATCT CLSD CALL SOCAL APCH (800) 448-3724.

Nearby radio navigation aids

VOR radial/distance  VOR name  Freq  Var
SLI at fieldSEAL BEACH VORTAC115.7015E
ELBr279/17.4EL TORO VOR/DME117.2014E
LAXr099/20.8LOS ANGELES VORTAC113.6015E
POMr202/21.7POMONA VORTAC110.4015E
SMOr108/24.1SANTA MONICA VOR/DME110.8015E
PDZr238/27.1PARADISE VORTAC112.2015E
SXCr021/31.0SANTA CATALINA VORTAC111.4015E
RALr238/(31.6)RIVERSIDE VOR112.4014E
VNYr125/34.0VAN NUYS VOR/DME113.1015E

 
NDB name  Hdg/Dist  Freq  Var  ID
BECCA019/2.423314ELG .-.. --.
EL MONTE168/17.935915EEMT . -- -

Airport Services

Fuel available: A1+ JET-B+
Oil available: AFLD OPS ADVSY 126.2/237.2 WHEN LOS ALAMITOS TWR CLSD.

Runway Information

Runway 4R/22L

Dimensions: 7999 x 200 ft. / 2438 x 61 m
Surface: asphalt/concrete
Weight bearing capacity: 
PCN 36 /R/C/W/T
Runway edge lights: high intensity
HIRL ELEV 1' AND LCTD 5' FR EDGE OF RWY.
RUNWAY 4R  RUNWAY 22L
Latitude: 33-47.026767N33-47.783300N
Longitude: 118-03.613500W118-02.319133W
Elevation: 21.2 ft.35.5 ft.
Traffic pattern: leftleft
Visual slope indicator: 4-light PAPI on left (3.00 degrees glide path)
Approach lights: SALSF
Runway end identifier lights: noyes
Centerline lights: yesyes
Touchdown point: yes, no lightsyes, no lights

Runway 4L/22R

Dimensions: 5901 x 150 ft. / 1799 x 46 m
Surface: PEM
Weight bearing capacity: 
PCN 36 /F/C/W/T
Runway edge lights: medium intensity
RUNWAY 4L  RUNWAY 22R
Latitude: 33-47.118333N33-47.676383N
Longitude: 118-03.723767W118-02.768750W
Elevation: 20.0 ft.26.9 ft.
Traffic pattern: leftleft
Touchdown point: yes, no lightsyes, no lights

Airport Ownership and Management from official FAA records

Ownership: U.S. Army
Owner: US ARMY
AASF, CAARNG, 4612 DOOLITTLE AVE
LOS ALAMITOS, CA 90720
Phone 562-795-2571
Manager: BASE OPS
LOS ALAMITOS, CA 90720
Phone 562-795-2571

Additional Remarks

RWY-LGTS: RWY 22L - SF.
MISC - WINDS ARE ACCURATE TO WITHIN PLUS OR MINUS 4 KNOTS.
MISC: TO EXCEED WT BRG CAP CTC AFLD OPS. SEE FLIP AP/1 RTE AND AREA RSTD AND SUPPLEMENT ARPT RMK.
ARNG AASF OPS- OPR 1530-2330Z++ MON-FRI; EXC HOL. DSN 972-2006, C562-795-2006. HTTP://WWW.CALGUARD.CA.GOV/AASF1.
RSTD: FOR SPECIAL AFTER HRS LNDG AND AFLD LIGHTING REQUESTS FOR ACFT WEIGHING UNDER 14,500 LBS, CALL AFLD OPS AT 562-795-2571.
RWY-17/35 CLSD (2500X150 ASP).
JASU - 4(E3) 2(AGPU) 2(AM32A-60B-WO DC PWR).
FUEL - J8
NS ABTMT - PRO IN EFF. ALL DEP RQR BRIEFINGS.

Instrument Procedures

NOTE: All procedures below are presented as PDF files. If you need a reader for these files, you should download the free Adobe Reader.

NOT FOR NAVIGATION. Please procure official charts for flight.
FAA instrument procedures published for use from 21 June 2018 at 0901Z to 19 July 2018 at 0900Z.

 
STARs - Standard Terminal Arrivals
KAYOH SEVEN   download (303KB)
 
IAPs - Instrument Approach Procedures
RNAV (GPS) RWY 22L   download (53KB)
VOR OR TACAN RWY 22L   download (139KB)
NDB RWY 22L   download (117KB)
Radar Approach Procedures available **CHANGED**   download (74KB)
 
Departure Procedures
HAWWC TWO (RNAV)   download (176KB)
NOTE: Special Take-Off Minimums/Departure Procedures apply   download (215KB)

Other nearby airports with instrument procedures:

KLGB - Long Beach Airport (Daugherty Field) (5 nm W)
KFUL - Fullerton Municipal Airport (6 nm NE)
KSNA - John Wayne-Orange County Airport (11 nm SE)
KTOA - Zamperini Field Airport (14 nm W)
KHHR - Jack Northrop Field/Hawthorne Municipal Airport (16 nm NW)
KEMT - San Gabriel Valley Airport (18 nm N)
KLAX - Los Angeles International Airport (20 nm NW)
 
Loc | Ops | Rwys | IFR | FBO | Links
Com | Nav | Svcs | Stats | Notes

San Bernardino International Airport Authority
 
Area around KSLI (Los Alamitos Army Airfield)
 
Road maps at: MapQuest Bing Google
 
Aerial photo
WARNING: Photo may not be current or correct
Aerial photo of KSLI (Los Alamitos Army Airfield)
Photo courtesy of FocalFlight.com
Photo taken 01-Nov-2015
looking north.

Do you have a better or more recent aerial photo of Los Alamitos Army Airfield that you would like to share? If so, please send us your photo.

 
Sectional chart

 
Airport diagram
Diagram of KSLI (Los Alamitos Army Airfield)
Download PDF
of official airport diagram from the FAA

 
Airport distance calculator
Flying to Los Alamitos Army Airfield? Find the distance to fly.

From to KSLI

Sunrise and sunset
Times for 17-Jul-2018
 Local
(UTC-7)
 Zulu
(UTC)
Morning civil twilight05:2712:27
Sunrise05:5512:55
Sunset20:0203:02
Evening civil twilight20:3003:30

Current date and time
Zulu (UTC)  17-Jul-2018 19:03:59
Local (UTC-7)  17-Jul-2018 12:03:59
 
METAR
KSLI 
2nm SE 
171814Z 19008KT 10SM SCT019 24/19 A2998 RMK AO2A
KLGB 
5nm W 
171853Z 21007KT 160V220 10SM CLR 25/19 A2998 RMK AO2 SLP150 T02500189
KFUL 
6nm NE 
171853Z VRB05KT 10SM CLR 27/18 A2996 RMK AO2 SLP144 T02720183
KSNA 
12nm SE 
171853Z 20009KT 10SM SCT014 25/18 A2998 RMK AO2 SLP150 T02500183
KTOA 
13nm W 
171759Z 28008KT 8SM OVC010 22/18 A2999
KHHR 
16nm NW 
171853Z 26007KT 7SM OVC016 23/19 A2999 RMK AO2 SLP153 T02280189
KEMT 
17nm N 
171847Z 20007KT 10SM CLR 28/17 A2998
KCQT 
18nm NW 
171847Z AUTO VRB03KT 7SM CLR 26/19 A2997 RMK AO2 SLP144 T02610189
KLAX 
19nm NW 
171853Z 24007KT 9SM BKN009 22/18 A2999 RMK AO2 SLP154 T02170183
TAF
KSLI 
2nm SE 
171326Z 1713/1819 20006KT 9999 OVC010 QNH2993INS BECMG 1717/1718 21009KT 9999 SCT010 BKN300 QNH2992INS BECMG 1720/1721 21009KT 9999 FEW110 BKN280 QNH2985INS BECMG 1803/1804 VRB06KT 9999 BKN150 QNH2990INS BECMG 1807/1808 VRB06KT 9999 SCT018 BKN150 QNH2992INS BECMG 1809/1810 20006KT 9999 SCT018 BKN180 QNH2993INS BECMG 1810/1811 20006KT 9999 BKN010 OVC130 QNH2995INS BECMG 1814/1815 20006KT 8000 -RA OVC010 QNH2999INS TX27/1723Z TN19/1713Z
KLGB 
5nm W 
171731Z 1718/1818 17003KT P6SM OVC013 FM172300 29008KT P6SM SKC FM180400 VRB03KT P6SM BKN200 FM180700 VRB03KT P6SM BKN120 FM181200 VRB03KT P6SM SCT012 BKN100
KSNA 
12nm SE 
171757Z 1718/1818 VRB04KT P6SM BKN015 FM171900 23009KT P6SM SCT250 FM180500 VRB03KT P6SM OVC012 FM181700 VRB04KT P6SM SCT015 SCT250
KLAX 
19nm NW 
171731Z 1718/1824 23005KT P6SM SCT008 OVC012 FM171900 26012KT P6SM SCT014 TEMPO 1719/1721 BKN012 FM180300 VRB03KT P6SM BKN200 FM180700 VRB03KT P6SM BKN120 FM181200 VRB03KT P6SM BKN010 FM181700 26006KT P6SM BKN100 FM182000 26012KT P6SM BKN100
NOTAMs
Click for the latest NOTAMs
NOTAMs are issued by the DoD/FAA and will open in a separate window not controlled by AirNav.

 

 
 

Would you like to see your business listed on this page?

 If your business provides an interesting product or service to pilots, flight crews, aircraft, or users of the Los Alamitos Army Airfield, you should consider listing it here.  To start the listing process, click on the button below
 
Add a business
 

Other Pages about Los Alamitos Army Airfield

www.aircav.com/sli.html
 
Update a link
 
Copyright © AirNav, LLC. All rights reserved. Privacy Policy  Contact